Weather Roundup
Issued by NWS

Home | Current Version | Previous Version | Graphics & Text | Print | Product List | Glossary Off
Versions: 1 2 3 4 5 6 7 8 9 10 11 12 13 14 15 16 17 18 19 20 21 22 23 24 25 26 27 28 29 30 31 32 33 34 35 36 37 38 39 40 41 42 43 44 45 46 47 48 49 50

000
NZUS93 KARX 021459
HRRWXR

CURRENT HOURLY OBSERVATIONS ACROSS
MUCH OF THE UPPER MISSISSIPPI VALLEY
NATIONAL WEATHER SERVICE LA CROSSE WI
1000 AM CDT WED SEP 02 2015


...SOUTHEAST MINNESOTA...


CITY           SKY/WX    TMP DP  RH WIND       PRES   REMARKS
ROCHESTER      PTSUNNY   75  69  81 S10       29.96S
ROCHESTER/MAYO CLOUDY    73  71  95 SE7       29.95F
WINONA         CLOUDY    77  70  78 CALM      29.97R
AUSTIN         SUNNY     75  66  73 S13       29.95S
ALBERT LEA     SUNNY     75  68  78 S9G16     29.93F
DODGE CENTER   MOSUNNY   73  68  83 S10       29.94F
PRESTON        MOSUNNY   71  67  88 S8        29.99R
OWATONNA       SUNNY     75  66  73 S8        29.93F
FARIBAULT      MOSUNNY   75  70  83 S10       29.92F
$$

...ELSEWHERE IN MINNESOTA...


CITY           SKY/WX    TMP DP  RH WIND       PRES   REMARKS
MINNEAPOLIS    CLOUDY    71  67  87 SE10      29.92S
INTNL FALLS    MOSUNNY   72  66  81 SE8       29.94S
DULUTH         LGT RAIN  65  63  93 E10       30.00F FOG
RED WING       TSTM      68  64  88 CALM      29.94F
REDWOOD FALLS  MOSUNNY   75  69  81 S12       29.86F
MANKATO        SUNNY     75  70  83 S13       29.90
WORTHINGTON    MOSUNNY   73  66  78 S13G20    29.90S
FAIRMONT       SUNNY     75  64  69 S16       29.90F
$$

...SOUTHWEST WISCONSIN...


CITY           SKY/WX    TMP DP  RH WIND       PRES   REMARKS
LA CROSSE      CLOUDY    79  69  71 S12       29.96S
PRAIRIE DU CHI CLOUDY    76  67  72 S3        30.00S
BOSCOBEL       PTSUNNY   81  70  69 W7        30.00R
LONE ROCK      NOT AVBL
PLATTEVILLE    PTSUNNY   77  72  85 S9        30.02S
FORT MC COY    CLOUDY    76  69  79 CALM      29.98S
VIROQUA          N/A     76  68  78 S8        30.00F
WIS DELLS      MOSUNNY   80  66  62 S5        30.00S
$$

...ELSEWHERE IN WISCONSIN...


CITY           SKY/WX    TMP DP  RH WIND       PRES   REMARKS
MILWAUKEE      MOSUNNY   82  69  64 W7        30.03S
MADISON        PTSUNNY   79  70  74 S7        30.01F
GREEN BAY      SUNNY     82  75  79 SW8       29.98S
EAU CLAIRE     LGT RAIN  70  68  93 NW8       29.97F FOG
BLACK RVR FLS  FAIR      76  73  88 CALM      29.98S
MEDFORD        CLOUDY    70  65  82 CALM      30.02R
WAUSAU         CLOUDY    76  72  87 SW5       29.98S FOG
WIS RAPIDS     PTSUNNY   79  69  71 SW8       30.01S
MARSHFIELD     CLOUDY    76  70  82 SW6       30.00S
RICE LAKE      CLOUDY    67  65  91 SE8       30.00R
$$

...NORTHEAST IOWA...


CITY           SKY/WX    TMP DP  RH WIND       PRES   REMARKS
DECORAH        CLOUDY    72  68  88 S7        29.99S
MASON CITY     SUNNY     76  67  73 S16G22    29.95F
CHARLES CITY   MOSUNNY   75  72  88 S10G20    29.98S
OELWEIN        CLOUDY    72  70  94 S9        30.02R
$$

...ELSEWHERE IN IOWA...


CITY           SKY/WX    TMP DP  RH WIND       PRES   REMARKS
DES MOINES     MOSUNNY   76  69  79 S17G25    29.97F
IOWA CITY      CLOUDY    74  69  85 SW7       30.02F
FORT DODGE     SUNNY     75  66  73 S13G25    29.95S
$$

...NORTHERN ILLINOIS...


CITY           SKY/WX    TMP DP  RH WIND       PRES   REMARKS
CHICAGO-OHARE  MOSUNNY   80  69  69 SW7       30.06F
CHICAGO-MIDWAY MOSUNNY   81  70  69 SW7       30.06F
MOLINE         PTSUNNY   81  70  69 SW9       30.04F
ROCKFORD       MOSUNNY   80  70  71 SW7       30.06F
PEORIA         MOSUNNY   83  71  67 SW7       30.08F
$$

NOTE: "FAIR" INDICATES FEW OR NO CLOUDS BELOW 12,000 FEET WITH NO
SIGNIFICANT WEATHER AND/OR OBSTRUCTIONS TO VISIBILITY. WIND
SPEEDS ARE IN MILES-PER-HOUR.



USA.gov is the U.S. government's official web portal to all federal, state and local government web resources and services.